Location: Pedimozza
(42.0500°N, 9.3500°E)
Time: 22:46:44
(UTC+00:00)

Thor Agena Rocket - Pass Details

Date: 19 August 2019
Orbit: 760 x 807 km, 99.0° (Epoch: 20 September)

Event Time Altitude Azimuth Distance (km) Brightness Sun altitude
Rises 21:18:51 0° 10° (N) 3,270 7.4 -28.0°
Reaches altitude 10° 21:21:11 10° 7° (N) 2,345 6.6 -28.2°
Maximum altitude 21:26:17 62° 288° (WNW) 888 3.9 -28.8°
Enters shadow 21:26:39 60° 266° (W) 902 3.8 -28.8°
